EW0322 Weather Reports


Display with metric or nautical units.
time (UTC)temp
F
wind
direction
speed
MPH
gust
MPH
rain 1hr
in
rain 24hr
in
rain mn
in
humidity
%
barometer
mb
20220118071549 54 244 0.0 2.0 0.00 0.00 0.00 33 1015.1
20220118070036 54 238 0.0 0.0 0.00 0.00 0.00 32 1015.5
20220118064541 54 241 0.0 4.0 0.00 0.00 0.00 32 1015.5
20220118063124 53 241 0.0 0.0 0.00 0.00 0.00 33 1015.5
20220118061538 53 241 0.0 0.0 0.00 0.00 0.00 34 1015.5
20220118060047 53 241 0.0 0.0 0.00 0.00 0.00 34 1015.6
20220118054552 53 241 0.0 0.0 0.00 0.00 0.00 35 1015.8
20220118053103 52 241 0.0 0.0 0.00 0.00 0.00 35 1015.9
20220118051551 52 241 0.0 0.0 0.00 0.00 0.00 34 1016.0
20220118050047 53 241 0.0 0.0 0.00 0.00 0.00 34 1016.1
20220118044559 53 241 0.0 0.0 0.00 0.00 0.00 33 1016.0
20220118043047 53 241 0.0 0.0 0.00 0.00 0.00 34 1015.9
20220118041542 54 241 0.0 0.0 0.00 0.00 0.00 32 1015.9
20220118040030 56 241 0.0 0.0 0.00 0.00 0.00 31 1016.0
20220118034635 56 241 0.0 0.0 0.00 0.00 0.00 31 1016.0
20220118033038 56 241 0.0 0.0 0.00 0.00 0.00 31 1016.0
20220118031605 57 241 0.0 0.0 0.00 0.00 0.00 30 1016.0
20220118030046 57 241 0.0 3.0 0.00 0.00 0.00 29 1016.0
20220118024552 58 242 0.0 4.0 0.00 0.00 0.00 29 1015.9
20220118021549 59 241 1.0 3.0 0.00 0.00 0.00 27 1015.6
20220118020050 60 241 0.0 2.0 0.00 0.00 0.00 26 1015.7
20220118014558 60 241 0.0 0.0 0.00 0.00 0.00 26 1015.6
20220118013046 60 241 0.0 0.0 0.00 0.00 0.00 26 1015.5
20220118010026 61 241 0.0 2.0 0.00 0.00 0.00 25 1015.4
20220118004527 62 242 0.0 0.0 0.00 0.00 0.00 25 1015.4
20220118003057 62 242 0.0 0.0 0.00 0.00 0.00 25 1015.3
20220118001538 62 241 0.0 2.0 0.00 0.00 0.00 25 1015.3
20220118000018 62 241 0.0 3.0 0.00 0.00 0.00 24 1015.5
20220117234546 62 241 0.0 0.0 0.00 0.00 0.00 22 1015.4
20220117233021 63 241 0.0 0.0 0.00 0.00 0.00 21 1015.3
20220117231609 63 241 0.0 2.0 0.00 0.00 0.00 21 1016.0
20220117230013 64 240 0.0 3.0 0.00 0.00 0.00 20 1016.0
20220117224550 65 241 1.0 5.0 0.00 0.00 0.00 20 1016.1
20220117223022 64 236 1.0 5.0 0.00 0.00 0.00 20 1016.3
20220117221507 62 236 0.0 4.0 0.00 0.00 0.00 21 1016.2
20220117220009 61 238 0.0 2.0 0.00 0.00 0.00 21 1016.3
20220117214503 62 238 1.0 4.0 0.00 0.00 0.00 21 1016.5
20220117213158 61 238 1.0 4.0 0.00 0.00 0.00 21 1016.6
20220117211634 61 221 1.0 4.0 0.00 0.00 0.00 21 1016.8
20220117210258 60 234 1.0 3.0 0.00 0.00 0.00 21 1016.8
20220117204611 59 216 2.0 4.0 0.00 0.00 0.00 22 1017.1
20220117203109 59 236 2.0 4.0 0.00 0.00 0.00 21 1017.6
20220117201553 58 231 0.0 3.0 0.00 0.00 0.00 22 1017.6
20220117200102 58 225 1.0 3.0 0.00 0.00 0.00 22 1019.0
20220117194619 57 224 1.0 4.0 0.00 0.00 0.00 23 1018.2
20220117193044 56 209 0.0 2.0 0.00 0.00 0.00 24 1018.8
20220117191549 54 207 1.0 3.0 0.00 0.00 0.00 25 1019.2
20220117190108 54 213 0.0 2.0 0.00 0.00 0.00 27 1019.4
20220117184533 52 210 0.0 3.0 0.00 0.00 0.00 28 1019.9
20220117183137 51 211 0.0 3.0 0.00 0.00 0.00 29 1020.4
20220117181521 50 217 0.0 3.0 0.00 0.00 0.00 29 1020.7
20220117180019 49 219 0.0 3.0 0.00 0.00 0.00 29 1021.0
20220117174517 48 238 0.0 3.0 0.00 0.00 0.00 30 1020.9
20220117173027 48 250 0.0 2.0 0.00 0.00 0.00 31 1021.0
20220117171517 47 257 0.0 2.0 0.00 0.00 0.00 33 1021.1
20220117170007 45 265 0.0 0.0 0.00 0.00 0.00 34 1021.2
20220117164511 45 273 0.0 0.0 0.00 0.00 0.00 36 1021.3
20220117163150 44 273 0.0 0.0 0.00 0.00 0.00 37 1021.1
20220117161613 43 219 0.0 0.0 0.00 0.00 0.00 38 1021.1
20220117160220 42 219 0.0 0.0 0.00 0.00 0.00 40 1021.0
20220117153145 40 219 0.0 0.0 0.00 0.00 0.00 45 1021.0
20220117151618 38 219 0.0 0.0 0.00 0.00 0.00 47 1021.0
20220117150107 36 218 0.0 0.0 0.00 0.00 0.00 49 1020.8
20220117144540 35 218 0.0 0.0 0.00 0.00 0.00 50 1020.8
20220117143112 34 218 0.0 0.0 0.00 0.00 0.00 50 1020.9
20220117141559 33 219 0.0 0.0 0.00 0.00 0.00 50 1020.7
20220117140029 33 218 0.0 0.0 0.00 0.00 0.00 49 1020.7
20220117134549 33 219 0.0 0.0 0.00 0.00 0.00 48 1020.6
20220117133124 34 219 0.0 0.0 0.00 0.00 0.00 48 1020.6
20220117131535 34 218 0.0 0.0 0.00 0.00 0.00 48 1020.4
20220117130057 34 218 0.0 0.0 0.00 0.00 0.00 48 1020.0
20220117124539 34 218 0.0 0.0 0.00 0.00 0.00 48 1019.9
20220117123051 34 218 0.0 0.0 0.00 0.00 0.00 48 1019.9
20220117121522 35 219 0.0 0.0 0.00 0.00 0.00 47 1019.9
20220117120032 34 219 0.0 0.0 0.00 0.00 0.00 47 1019.9
20220117114523 35 219 0.0 0.0 0.00 0.00 0.00 47 1019.9
20220117113019 35 219 0.0 0.0 0.00 0.00 0.00 46 1019.8
20220117111543 35 219 0.0 0.0 0.00 0.00 0.00 45 1019.9
20220117110029 35 218 0.0 0.0 0.00 0.00 0.00 46 1020.0
20220117104515 35 219 0.0 0.0 0.00 0.00 0.00 46 1020.3
20220117103028 35 219 0.0 0.0 0.00 0.00 0.00 46 1020.5
20220117101523 35 218 0.0 0.0 0.00 0.00 0.00 46 1020.5
20220117100030 36 219 0.0 0.0 0.00 0.00 0.00 45 1020.4
20220117094504 37 218 0.0 0.0 0.00 0.00 0.00 44 1020.4
20220117093010 37 219 0.0 0.0 0.00 0.00 0.00 43 1020.4
20220117091515 37 218 0.0 0.0 0.00 0.00 0.00 44 1020.5
20220117090002 37 218 0.0 0.0 0.00 0.00 0.00 44 1020.4
20220117084624 37 218 0.0 0.0 0.00 0.00 0.00 44 1020.4
20220117083148 37 218 0.0 0.0 0.00 0.00 0.00 43 1020.4
20220117081558 38 218 0.0 0.0 0.00 0.00 0.00 43 1020.3
20220117080130 38 218 0.0 0.0 0.00 0.00 0.00 43 1020.3
20220117074557 38 218 0.0 0.0 0.00 0.00 0.00 42 1020.4
20220117073204 40 219 0.0 0.0 0.00 0.00 0.00 40 1020.5